Regional Weather Roundup
Issued by NWS

Home | Current Version | Previous Version | Text Only | Print | Product List | Glossary On
Versions: 1 2 3 4 5 6 7 8 9 10 11 12 13 14 15 16 17 18 19 20 21 22 23 24 25 26 27 28 29 30 31 32 33 34 35 36 37 38 39 40 41 42 43 44 45 46 47 48 49 50
000
ASUS45 KBOI 212010
RWRID

IDAHO REGIONAL WEATHER ROUNDUP
NATIONAL WEATHER SERVICE BOISE ID
200 PM MDT FRI JUL 21 2017

NOTE: "FAIR" INDICATES FEW OR NO CLOUDS BELOW 12000 FEET
WITH NO SIGNIFICANT WEATHER AND/OR OBSTRUCTIONS TO VISIBILITY

IDZ012-014-212100-
SOUTHWEST IDAHO


CITY           SKY/WX    TMP DP  RH WIND       PRES   REMARKS
BOISE          SUNNY     88  42  20 NW12      30.05F
CALDWELL       SUNNY     86  46  24 NW9       30.05F
MOUNTAIN HOME  SUNNY     90  43  19 W10       30.04F
$$

IDZ016-017-212100-
SOUTHCENTRAL IDAHO


CITY           SKY/WX    TMP DP  RH WIND       PRES   REMARKS
BURLEY         SUNNY     83  44  25 VRB5      30.10F
JEROME         SUNNY     84  46  26 VRB6      30.12F
TWIN FALLS     SUNNY     84  45  25 VRB6      30.12F
$$

IDZ019>023-212100-
SOUTHEAST IDAHO


CITY           SKY/WX    TMP DP  RH WIND       PRES   REMARKS
IDAHO FALLS    SUNNY     83  34  17 NW5       30.14F
POCATELLO      SUNNY     88  27  11 SW8       30.13F
REXBURG        SUNNY     83  27  13 SW8       30.14F
$$

IDZ006-010-011-018-031-032-212100-
CENTRAL IDAHO MOUNTAINS


CITY           SKY/WX    TMP DP  RH WIND       PRES   REMARKS
MCCALL         SUNNY     79  30  16 SW8       30.18F
HAILEY         SUNNY     84  36  17 SW6       30.17F
STANLEY          N/A     78  27  15 VRB5      30.26F
SALMON         NOT AVBL
CHALLIS        SUNNY     84  30  14 E7        30.12F
$$

IDZ002-004-006-007-026-212100-
NORTHERN IDAHO


CITY           SKY/WX    TMP DP  RH WIND       PRES   REMARKS
LEWISTON       SUNNY     82  40  22 N6        30.09F
LOWELL           N/A     87  42  20 VRB3      30.05F
COEUR D`ALENE  SUNNY     76  45  33 S10       30.13F
MULLAN PASS    SUNNY     61  36  39 MISG      30.24S
$$



USA.gov is the U.S. government's official web portal to all federal, state and local government web resources and services.